Time,TemperatureF,DewpointF,PressureIn,WindDirection,WindDirectionDegrees,WindSpeedMPH,WindSpeedGustMPH,Humidity,HourlyPrecipIn,Conditions,Clouds,dailyrainin,SoftwareType,DateUTC
2013-01-11 00:05:00,58.0,53.0,30.32,ESE,115,0.0,-999.0,83,-99.99,,,0.00,weatherlink.com 1.10,2013-01-11 05:05:00,
2013-01-11 00:20:00,58.0,53.0,30.31,ESE,115,0.0,-999.0,83,-99.99,,,0.00,weatherlink.com 1.10,2013-01-11 05:20:00,
2013-01-11 00:35:00,57.6,53.0,30.31,ESE,115,0.0,-999.0,83,-99.99,,,0.00,weatherlink.com 1.10,2013-01-11 05:35:00,
2013-01-11 00:50:00,57.2,52.0,30.31,ESE,115,0.0,-999.0,83,-99.99,,,0.00,weatherlink.com 1.10,2013-01-11 05:50:00,
2013-01-11 01:05:00,56.9,52.0,30.31,ESE,115,0.0,-999.0,83,-99.99,,,0.00,weatherlink.com 1.10,2013-01-11 06:05:00,
2013-01-11 01:20:00,56.7,52.0,30.30,ESE,115,0.0,-999.0,83,-99.99,,,0.00,weatherlink.com 1.10,2013-01-11 06:20:00,
2013-01-11 01:35:00,56.7,52.0,30.30,ESE,115,0.0,-999.0,83,-99.99,,,0.00,weatherlink.com 1.10,2013-01-11 06:35:00,
2013-01-11 01:50:00,57.0,52.0,30.29,ESE,115,0.0,-999.0,84,-99.99,,,0.00,weatherlink.com 1.10,2013-01-11 06:50:00,
2013-01-11 02:05:00,57.3,53.0,30.29,ESE,115,0.0,-999.0,84,-99.99,,,0.00,weatherlink.com 1.10,2013-01-11 07:05:00,
2013-01-11 02:20:00,57.8,53.0,30.29,ESE,115,0.0,-999.0,84,-99.99,,,0.00,weatherlink.com 1.10,2013-01-11 07:20:00,
2013-01-11 02:35:00,58.0,53.0,30.29,ESE,115,0.0,-999.0,84,-99.99,,,0.00,weatherlink.com 1.10,2013-01-11 07:35:00,
2013-01-11 02:50:00,58.0,53.0,30.29,ESE,115,0.0,-999.0,84,-99.99,,,0.00,weatherlink.com 1.10,2013-01-11 07:50:00,
2013-01-11 03:05:00,57.5,53.0,30.29,ESE,115,0.0,-999.0,84,-99.99,,,0.00,weatherlink.com 1.10,2013-01-11 08:05:00,
2013-01-11 03:20:00,57.2,52.0,30.28,ESE,115,0.0,-999.0,84,-99.99,,,0.00,weatherlink.com 1.10,2013-01-11 08:20:00,
2013-01-11 03:35:00,56.7,52.0,30.27,ESE,115,0.0,-999.0,84,-99.99,,,0.00,weatherlink.com 1.10,2013-01-11 08:35:00,
2013-01-11 03:50:00,56.5,52.0,30.27,ESE,115,0.0,-999.0,84,-99.99,,,0.00,weatherlink.com 1.10,2013-01-11 08:50:00,
2013-01-11 04:05:00,56.5,52.0,30.26,ESE,115,0.0,-999.0,84,-99.99,,,0.00,weatherlink.com 1.10,2013-01-11 09:05:00,
2013-01-11 04:20:00,56.5,52.0,30.25,ESE,115,0.0,-999.0,85,-99.99,,,0.00,weatherlink.com 1.10,2013-01-11 09:20:00,
2013-01-11 04:35:00,56.5,52.0,30.25,ESE,115,0.0,-999.0,85,-99.99,,,0.00,weatherlink.com 1.10,2013-01-11 09:35:00,
2013-01-11 04:50:00,56.5,52.0,30.25,ESE,115,0.0,-999.0,85,-99.99,,,0.00,weatherlink.com 1.10,2013-01-11 09:50:00,
2013-01-11 05:05:00,56.2,52.0,30.25,ESE,115,0.0,-999.0,85,-99.99,,,0.00,weatherlink.com 1.10,2013-01-11 10:05:00,
2013-01-11 05:20:00,55.9,52.0,30.25,ESE,115,0.0,-999.0,85,-99.99,,,0.00,weatherlink.com 1.10,2013-01-11 10:20:00,
2013-01-11 05:35:00,55.6,51.0,30.25,ESE,115,0.0,-999.0,85,-99.99,,,0.00,weatherlink.com 1.10,2013-01-11 10:35:00,
2013-01-11 05:50:00,55.3,51.0,30.25,ESE,115,0.0,-999.0,85,-99.99,,,0.00,weatherlink.com 1.10,2013-01-11 10:50:00,
2013-01-11 06:06:00,55.1,51.0,30.24,ESE,115,0.0,-999.0,85,-99.99,,,0.00,weatherlink.com 1.10,2013-01-11 11:06:00,
2013-01-11 06:21:00,54.7,50.0,30.25,ESE,115,0.0,-999.0,85,-99.99,,,0.00,weatherlink.com 1.10,2013-01-11 11:21:00,
2013-01-11 06:36:00,54.5,50.0,30.25,ESE,115,0.0,-999.0,85,-99.99,,,0.00,weatherlink.com 1.10,2013-01-11 11:36:00,
2013-01-11 06:51:00,54.4,50.0,30.25,ESE,115,0.0,-999.0,85,-99.99,,,0.00,weatherlink.com 1.10,2013-01-11 11:51:00,
2013-01-11 07:06:00,54.2,50.0,30.25,ESE,115,0.0,-999.0,85,-99.99,,,0.00,weatherlink.com 1.10,2013-01-11 12:06:00,
2013-01-11 07:21:00,54.2,50.0,30.25,ESE,115,0.0,-999.0,85,-99.99,,,0.00,weatherlink.com 1.10,2013-01-11 12:21:00,
2013-01-11 07:36:00,54.7,51.0,30.25,ESE,115,0.0,-999.0,86,-99.99,,,0.00,weatherlink.com 1.10,2013-01-11 12:36:00,
2013-01-11 07:51:00,55.4,51.0,30.26,ESE,115,0.0,-999.0,86,-99.99,,,0.00,weatherlink.com 1.10,2013-01-11 12:51:00,
2013-01-11 08:06:00,55.7,52.0,30.26,ESE,115,0.0,-999.0,86,-99.99,,,0.00,weatherlink.com 1.10,2013-01-11 13:06:00,
2013-01-11 08:21:00,56.2,52.0,30.26,ESE,115,0.0,-999.0,86,-99.99,,,0.00,weatherlink.com 1.10,2013-01-11 13:21:00,
2013-01-11 08:36:00,57.0,53.0,30.25,ESE,115,0.0,-999.0,87,-99.99,,,0.00,weatherlink.com 1.10,2013-01-11 13:36:00,
2013-01-11 08:51:00,58.7,55.0,30.25,ESE,115,0.0,-999.0,87,-99.99,,,0.00,weatherlink.com 1.10,2013-01-11 13:51:00,
2013-01-11 09:06:00,60.2,56.0,30.26,ESE,115,0.0,-999.0,87,-99.99,,,0.00,weatherlink.com 1.10,2013-01-11 14:06:00,
2013-01-11 09:21:00,61.5,58.0,30.26,ESE,115,0.0,-999.0,87,-99.99,,,0.00,weatherlink.com 1.10,2013-01-11 14:21:00,
2013-01-11 09:36:00,62.4,59.0,30.27,ESE,115,0.0,-999.0,87,-99.99,,,0.00,weatherlink.com 1.10,2013-01-11 14:36:00,
2013-01-11 09:51:00,63.2,59.0,30.27,ESE,115,0.0,-999.0,87,-99.99,,,0.00,weatherlink.com 1.10,2013-01-11 14:51:00,
2013-01-11 10:06:00,63.9,60.0,30.27,ESE,115,0.0,-999.0,87,-99.99,,,0.00,weatherlink.com 1.10,2013-01-11 15:06:00,
2013-01-11 10:21:00,63.9,60.0,30.28,ESE,115,0.0,-999.0,86,-99.99,,,0.00,weatherlink.com 1.10,2013-01-11 15:21:00,
2013-01-11 10:36:00,64.5,60.0,30.28,ESE,115,0.0,-999.0,86,-99.99,,,0.00,weatherlink.com 1.10,2013-01-11 15:36:00,
2013-01-11 10:51:00,66.8,63.0,30.27,ENE,68,0.0,-999.0,86,-99.99,,,0.00,weatherlink.com 1.10,2013-01-11 15:51:00,
2013-01-11 11:06:00,68.6,63.0,30.26,East,95,1.0,-999.0,82,-99.99,,,0.00,weatherlink.com 1.10,2013-01-11 16:06:00,
2013-01-11 11:21:00,69.6,63.0,30.26,NE,46,1.0,-999.0,80,-99.99,,,0.00,weatherlink.com 1.10,2013-01-11 16:21:00,
2013-01-11 11:36:00,70.3,63.0,30.26,ESE,118,1.0,-999.0,77,-99.99,,,0.00,weatherlink.com 1.10,2013-01-11 16:36:00,
2013-01-11 11:51:00,70.4,62.0,30.26,ESE,114,0.0,-999.0,75,-99.99,,,0.00,weatherlink.com 1.10,2013-01-11 16:51:00,
2013-01-11 12:06:00,70.9,62.0,30.26,NNE,24,3.0,-999.0,74,-99.99,,,0.00,weatherlink.com 1.10,2013-01-11 17:06:00,
2013-01-11 12:21:00,71.3,62.0,30.25,ENE,67,2.0,-999.0,73,-99.99,,,0.00,weatherlink.com 1.10,2013-01-11 17:21:00,
2013-01-11 12:36:00,72.5,63.0,30.23,ENE,75,1.0,-999.0,72,-99.99,,,0.00,weatherlink.com 1.10,2013-01-11 17:36:00,
2013-01-11 12:51:00,73.5,63.0,30.23,NE,52,4.0,-999.0,69,-99.99,,,0.00,weatherlink.com 1.10,2013-01-11 17:51:00,
2013-01-11 13:06:00,74.0,62.0,30.23,East,99,0.0,-999.0,67,-99.99,,,0.00,weatherlink.com 1.10,2013-01-11 18:06:00,
2013-01-11 13:21:00,74.4,62.0,30.23,East,81,0.0,-999.0,66,-99.99,,,0.00,weatherlink.com 1.10,2013-01-11 18:21:00,
2013-01-11 13:36:00,75.3,63.0,30.22,East,82,0.0,-999.0,65,-99.99,,,0.00,weatherlink.com 1.10,2013-01-11 18:36:00,
2013-01-11 13:51:00,75.6,62.0,30.22,SW,222,1.0,-999.0,63,-99.99,,,0.00,weatherlink.com 1.10,2013-01-11 18:51:00,
2013-01-11 14:06:00,74.9,62.0,30.21,ENE,77,0.0,-999.0,64,-99.99,,,0.00,weatherlink.com 1.10,2013-01-11 19:06:00,
2013-01-11 14:21:00,73.3,61.0,30.21,NE,52,5.0,-999.0,65,-99.99,,,0.00,weatherlink.com 1.10,2013-01-11 19:21:00,
2013-01-11 14:36:00,71.5,61.0,30.21,ENE,58,2.0,-999.0,69,-99.99,,,0.00,weatherlink.com 1.10,2013-01-11 19:36:00,
2013-01-11 14:51:00,70.9,61.0,30.20,NE,56,0.0,-999.0,70,-99.99,,,0.00,weatherlink.com 1.10,2013-01-11 19:51:00,
2013-01-11 15:06:00,70.6,60.0,30.20,NNE,19,1.0,-999.0,70,-99.99,,,0.00,weatherlink.com 1.10,2013-01-11 20:06:00,
2013-01-11 15:21:00,70.1,60.0,30.20,East,79,0.0,-999.0,71,-99.99,,,0.00,weatherlink.com 1.10,2013-01-11 20:21:00,
2013-01-11 15:36:00,69.6,60.0,30.20,ENE,64,0.0,-999.0,72,-99.99,,,0.00,weatherlink.com 1.10,2013-01-11 20:36:00,
2013-01-11 15:51:00,69.6,61.0,30.20,East,92,0.0,-999.0,73,-99.99,,,0.00,weatherlink.com 1.10,2013-01-11 20:51:00,
2013-01-11 16:06:00,69.1,60.0,30.20,ENE,76,0.0,-999.0,73,-99.99,,,0.00,weatherlink.com 1.10,2013-01-11 21:06:00,
2013-01-11 16:21:00,68.8,60.0,30.19,ENE,78,0.0,-999.0,74,-99.99,,,0.00,weatherlink.com 1.10,2013-01-11 21:21:00,
2013-01-11 16:36:00,68.1,60.0,30.19,ENE,78,0.0,-999.0,74,-99.99,,,0.00,weatherlink.com 1.10,2013-01-11 21:36:00,
2013-01-11 16:51:00,67.6,59.0,30.19,ENE,78,0.0,-999.0,75,-99.99,,,0.00,weatherlink.com 1.10,2013-01-11 21:51:00,
2013-01-11 17:07:00,67.1,59.0,30.19,ENE,78,0.0,-999.0,75,-99.99,,,0.00,weatherlink.com 1.10,2013-01-11 22:07:00,
2013-01-11 17:22:00,66.4,59.0,30.20,ENE,78,0.0,-999.0,76,-99.99,,,0.00,weatherlink.com 1.10,2013-01-11 22:22:00,
2013-01-11 17:37:00,65.6,58.0,30.20,ENE,78,0.0,-999.0,77,-99.99,,,0.00,weatherlink.com 1.10,2013-01-11 22:37:00,
2013-01-11 17:52:00,65.0,58.0,30.20,ENE,78,0.0,-999.0,77,-99.99,,,0.00,weatherlink.com 1.10,2013-01-11 22:52:00,
2013-01-11 18:07:00,64.2,57.0,30.20,ENE,78,0.0,-999.0,77,-99.99,,,0.00,weatherlink.com 1.10,2013-01-11 23:07:00,
2013-01-11 18:22:00,63.5,57.0,30.20,ENE,78,0.0,-999.0,78,-99.99,,,0.00,weatherlink.com 1.10,2013-01-11 23:22:00,
2013-01-11 18:37:00,63.2,57.0,30.20,ENE,78,0.0,-999.0,79,-99.99,,,0.00,weatherlink.com 1.10,2013-01-11 23:37:00,
2013-01-11 18:52:00,62.9,57.0,30.20,ENE,78,0.0,-999.0,80,-99.99,,,0.00,weatherlink.com 1.10,2013-01-11 23:52:00,
2013-01-11 19:07:00,62.6,56.0,30.20,ENE,78,0.0,-999.0,80,-99.99,,,0.00,weatherlink.com 1.10,2013-01-12 00:07:00,
2013-01-11 19:22:00,62.6,57.0,30.20,ENE,78,0.0,-999.0,81,-99.99,,,0.00,weatherlink.com 1.10,2013-01-12 00:22:00,
2013-01-11 19:37:00,62.7,57.0,30.20,ENE,78,0.0,-999.0,81,-99.99,,,0.00,weatherlink.com 1.10,2013-01-12 00:37:00,
2013-01-11 19:52:00,62.6,57.0,30.20,ENE,78,0.0,-999.0,81,-99.99,,,0.00,weatherlink.com 1.10,2013-01-12 00:52:00,
2013-01-11 20:07:00,62.7,57.0,30.20,ENE,78,0.0,-999.0,82,-99.99,,,0.00,weatherlink.com 1.10,2013-01-12 01:07:00,
2013-01-11 20:22:00,62.7,57.0,30.20,ENE,78,0.0,-999.0,82,-99.99,,,0.00,weatherlink.com 1.10,2013-01-12 01:22:00,
2013-01-11 20:37:00,62.7,57.0,30.20,ENE,78,0.0,-999.0,82,-99.99,,,0.00,weatherlink.com 1.10,2013-01-12 01:37:00,
2013-01-11 20:52:00,63.2,58.0,30.21,ENE,78,0.0,-999.0,83,-99.99,,,0.00,weatherlink.com 1.10,2013-01-12 01:52:00,
2013-01-11 21:07:00,63.4,58.0,30.21,ENE,78,0.0,-999.0,83,-99.99,,,0.00,weatherlink.com 1.10,2013-01-12 02:07:00,
2013-01-11 21:22:00,63.4,58.0,30.21,ENE,78,0.0,-999.0,83,-99.99,,,0.00,weatherlink.com 1.10,2013-01-12 02:22:00,
2013-01-11 21:37:00,63.1,58.0,30.20,ENE,78,0.0,-999.0,83,-99.99,,,0.00,weatherlink.com 1.10,2013-01-12 02:37:00,
2013-01-11 21:52:00,62.7,58.0,30.20,ENE,78,0.0,-999.0,83,-99.99,,,0.00,weatherlink.com 1.10,2013-01-12 02:52:00,
2013-01-11 22:07:00,62.6,57.0,30.20,ENE,78,0.0,-999.0,83,-99.99,,,0.00,weatherlink.com 1.10,2013-01-12 03:07:00,
2013-01-11 22:22:00,62.6,58.0,30.20,ENE,78,1.0,-999.0,84,-99.99,,,0.00,weatherlink.com 1.10,2013-01-12 03:22:00,
2013-01-11 22:37:00,63.1,58.0,30.20,ENE,78,0.0,-999.0,84,-99.99,,,0.00,weatherlink.com 1.10,2013-01-12 03:37:00,
2013-01-11 22:52:00,63.2,58.0,30.20,ENE,78,0.0,-999.0,84,-99.99,,,0.00,weatherlink.com 1.10,2013-01-12 03:52:00,
2013-01-11 23:07:00,63.4,59.0,30.20,ENE,78,0.0,-999.0,85,-99.99,,,0.00,weatherlink.com 1.10,2013-01-12 04:07:00,
2013-01-11 23:22:00,63.7,59.0,30.20,ENE,78,0.0,-999.0,85,-99.99,,,0.00,weatherlink.com 1.10,2013-01-12 04:22:00,
2013-01-11 23:37:00,64.0,60.0,30.20,ENE,78,0.0,-999.0,85,-99.99,,,0.00,weatherlink.com 1.10,2013-01-12 04:37:00,
2013-01-11 23:52:00,64.2,60.0,30.20,East,81,0.0,-999.0,85,-99.99,,,0.00,weatherlink.com 1.10,2013-01-12 04:52:00,